Weather History for Alturas, CA

Change the Weather History Date:

Wednesday, July 3, 2013

  Actual Average Record
Temperature  
Mean Temperature 81 °F 64 °F  
Max Temperature 99 °F 85 °F 101 °F (1967)
Min Temperature 62 °F 44 °F 31 °F (1947)
Degree Days  
Heating Degree Days 0 2  
Month to date heating degree days 0 7  
Since 1 June heating degree days 156 187  
Since 1 July heating degree days 0 7  
Cooling Degree Days 16 1  
Month to date cooling degree days 41 3  
Year to date cooling degree days 84 14  
Since 1 June cooling degree days 84 14  
Growing Degree Days 30 (Base 50)    
Moisture  
Dew Point 52 °F    
Average Humidity 45    
Maximum Humidity 73    
Minimum Humidity 17    
Precipitation  
Precipitation T in 0.01 in 0.37 in (1980)
Month to date precipitation T 0.03  
Year to date precipitation 4.43 8.47  
Sea Level Pressure  
Sea Level Pressure 29.98 in    
Wind  
Wind Speed 7 mph (North)    
Max Wind Speed 28 mph    
Max Gust Speed 35 mph    
Visibility 10 miles    
Events Rain , Thunderstorm    
T = Trace of Precipitation, MM = Missing Value Source: NWS Daily Summary

Daily Weather History Graph

Daily Weather History Graph

Search for Another Location

Airport:

Trip Planner

Search our weather history database for the weather conditions in past years. The results will help you decide how hot, cold, wet, or windy it might be!

Date:

Astronomy

Jul. 03, 2013 Rise Set
Actual Time 5:33 AM PDT 8:39 PM PDT
Civil Twilight 4:59 AM PDT 9:13 PM PDT
Nautical Twilight 4:16 AM PDT 9:56 PM PDT
Astronomical Twilight 3:25 AM PDT 10:47 PM PDT
Moon 2:16 AM PDT (7/3) 4:53 PM PDT (7/3)
Length of Visible Light 16h 13m
Length of Day
15h 05m
Waning Crescent, 17% of the Moon is Illuminated
Jul 3
Waning Crescent
Jul 8
New
Jul 15
First Quarter
Jul 22
Full
Jul 29
Last Quarter

Hourly Weather History & Observations

Time (PDT) Temp. Heat Index Dew Point Humidity Pressure Visibility Wind Dir Wind Speed Gust Speed Precip Events Conditions
12:55 AM 75.9 °F - 53.1 °F 45% 30.06 in 10.0 mi NE 5.8 mph - N/A   Scattered Clouds
1:55 AM 73.9 °F - 53.1 °F 48% 30.04 in 10.0 mi NE 6.9 mph 16.1 mph N/A   Clear
2:55 AM 71.1 °F - 55.0 °F 57% 30.02 in 10.0 mi North 6.9 mph - N/A   Clear
3:55 AM 68.0 °F - 55.9 °F 65% 30.02 in 10.0 mi WSW 3.5 mph - N/A   Clear
4:55 AM 63.0 °F - 54.0 °F 72% 30.03 in 10.0 mi NNW 3.5 mph - N/A   Clear
5:55 AM 64.0 °F - 55.0 °F 73% 30.04 in 10.0 mi Calm Calm - N/A   Clear
6:55 AM 68.0 °F - 55.9 °F 65% 30.07 in 10.0 mi Calm Calm - N/A   Clear
7:55 AM 71.1 °F - 55.9 °F 59% 30.06 in 10.0 mi Calm Calm - N/A   Clear
8:55 AM 75.9 °F - 57.0 °F 52% 30.04 in 10.0 mi NE 4.6 mph - N/A   Clear
9:55 AM 82.0 °F 81.3 °F 54.0 °F 38% 30.01 in 10.0 mi ENE 3.5 mph - N/A   Clear
10:55 AM 84.9 °F - 50.0 °F 30% 30.00 in 10.0 mi Calm Calm - N/A   Clear
11:55 AM 90.0 °F - 51.1 °F 26% 29.97 in 10.0 mi Variable 6.9 mph - N/A   Clear
12:55 PM 93.0 °F - 50.0 °F 23% 29.94 in 10.0 mi North 8.1 mph - N/A   Clear
1:55 PM 95.0 °F - 48.0 °F 20% 29.93 in 10.0 mi NW 10.4 mph 17.3 mph N/A   Clear
2:55 PM 97.0 °F - 46.0 °F 18% 29.91 in 10.0 mi Variable 5.8 mph - N/A   Clear
3:55 PM 96.1 °F - 45.0 °F 17% 29.88 in 10.0 mi North 11.5 mph - N/A   Partly Cloudy
4:55 PM 93.9 °F - 46.9 °F 20% 29.88 in 10.0 mi NNW 6.9 mph - N/A   Partly Cloudy
5:55 PM 91.9 °F - 46.0 °F 21% 29.88 in 10.0 mi WNW 17.3 mph - N/A   Scattered Clouds
6:55 PM 89.1 °F - 48.9 °F 25% 29.88 in 10.0 mi North 9.2 mph - N/A   Clear
7:55 PM 86.0 °F - 50.0 °F 29% 29.91 in 10.0 mi NW 9.2 mph 17.3 mph N/A   Clear
8:55 PM 82.0 °F 81.3 °F 54.0 °F 38% 29.95 in 10.0 mi West 20.7 mph 26.5 mph 0.00 in Rain Light Rain
9:13 PM 80.6 °F 80.5 °F 55.4 °F 42% 30.11 in 10.0 mi WNW 18.4 mph 34.5 mph 0.00 in Thunderstorm Overcast
9:28 PM 80.6 °F - 50.0 °F 34% 30.11 in 10.0 mi NW 21.9 mph 32.2 mph 0.00 in   Scattered Clouds
9:55 PM 79.0 °F - 46.0 °F 31% 29.94 in 10.0 mi NNW 18.4 mph 25.3 mph 0.00 in   Clear
10:55 PM 75.9 °F - 54.0 °F 46% 29.95 in 10.0 mi NNE 6.9 mph - N/A   Clear
11:55 PM 73.9 °F - 53.1 °F 48% 29.96 in 10.0 mi ESE 3.5 mph - N/A   Clear